This is the latest recevied weather packets stored in our database for station/object YO2KCB-10. If no packets are shown the sender has not sent any weather packets the latest 10 day(s).
| Time | Temp. | Humidity | Pressure | Rain* | Wind** | Luminosity | Snow |
|---|---|---|---|---|---|---|---|
| 1777630826 | 16.11° C | 31% | 1024 hPa | - | - | - | - |
| 1777629625 | 16.11° C | 32% | 1024.3 hPa | - | - | - | - |
| 1777628425 | 15.56° C | 33% | 1024.4 hPa | - | - | - | - |
| 1777627225 | 15° C | 34% | 1024.4 hPa | - | - | - | - |
| 1777626025 | 14.44° C | 34% | 1024.6 hPa | - | - | - | - |
| 1777624825 | 13.33° C | 35% | 1024.7 hPa | - | - | - | - |
| 1777623625 | 13.33° C | 35% | 1024.8 hPa | - | - | - | - |
| 1777622424 | 13.33° C | 34% | 1024.6 hPa | - | - | - | - |
| 1777621224 | 11.67° C | 35% | 1024.6 hPa | - | - | - | - |
| 1777620024 | 11.11° C | 35% | 1024.5 hPa | - | - | - | - |
| 1777618824 | 10.56° C | 36% | 1024.6 hPa | - | - | - | - |
| 1777617624 | 10° C | 36% | 1024.5 hPa | - | - | - | - |
| 1777616424 | 9.44° C | 35% | 1024.4 hPa | - | - | - | - |
| 1777615223 | 8.89° C | 35% | 1024.3 hPa | - | - | - | - |
| 1777614023 | 8.33° C | 35% | 1024.1 hPa | - | - | - | - |
| 1777612823 | 7.78° C | 35% | 1024.1 hPa | - | - | - | - |
| 1777611623 | 6.67° C | 34% | 1024.1 hPa | - | - | - | - |
| 1777610423 | 6.11° C | 34% | 1023.8 hPa | - | - | - | - |
| 1777609223 | 6.11° C | 34% | 1023.8 hPa | - | - | - | - |
| 1777608023 | 5.56° C | 33% | 1023.7 hPa | - | - | - | - |
| 1777606822 | 6.11° C | 33% | 1023.8 hPa | - | - | - | - |
| 1777605622 | 6.11° C | 32% | 1023.6 hPa | - | - | - | - |
| 1777604422 | 6.11° C | 32% | 1023.5 hPa | - | - | - | - |
| 1777603222 | 6.67° C | 32% | 1023.5 hPa | - | - | - | - |
| 1777602022 | 6.67° C | 33% | 1023.5 hPa | - | - | - | - |
* Rain since midnight (hover to see other rain measurements)
** Current wind speed in m/s (hover to see current wind gust speed)